Time,TemperatureF,DewpointF,PressureIn,WindDirection,WindDirectionDegrees,WindSpeedMPH,WindSpeedGustMPH,Humidity,HourlyPrecipIn,Conditions,Clouds,dailyrainin,SoftwareType,DateUTC
2013-02-26 00:04:00,35.6,30.0,29.92,NE,38,10.0,13.0,80,0.00,,,0.00,Wunderground v.1.15,2013-02-26 06:04:00,
2013-02-26 00:10:00,35.5,30.2,29.93,ENE,65,9.0,10.0,81,0.00,,,0.00,Wunderground v.1.15,2013-02-26 06:10:00,
2013-02-26 00:16:00,35.5,30.2,29.93,NE,47,8.0,9.0,81,0.00,,,0.00,Wunderground v.1.15,2013-02-26 06:16:00,
2013-02-26 00:22:00,35.4,30.1,29.92,ENE,77,9.0,9.0,81,0.00,,,0.00,Wunderground v.1.15,2013-02-26 06:22:00,
2013-02-26 00:28:00,35.3,30.4,29.92,NE,42,9.0,11.0,82,0.00,,,0.00,Wunderground v.1.15,2013-02-26 06:28:00,
2013-02-26 00:34:00,35.2,30.3,29.91,NE,55,9.0,11.0,82,0.00,,,0.00,Wunderground v.1.15,2013-02-26 06:34:00,
2013-02-26 00:40:00,35.2,30.3,29.91,East,87,10.0,12.0,82,0.00,,,0.00,Wunderground v.1.15,2013-02-26 06:40:00,
2013-02-26 00:46:00,35.3,30.4,29.91,ENE,65,9.0,13.0,82,0.00,,,0.00,Wunderground v.1.15,2013-02-26 06:46:00,
2013-02-26 00:52:00,35.3,30.1,29.90,NE,56,9.0,13.0,81,0.00,,,0.00,Wunderground v.1.15,2013-02-26 06:52:00,
2013-02-26 00:58:00,35.3,30.1,29.90,ENE,72,9.0,9.0,81,0.00,,,0.00,Wunderground v.1.15,2013-02-26 06:58:00,
2013-02-26 01:04:00,35.5,30.2,29.90,ENE,57,9.0,11.0,81,0.00,,,0.00,Wunderground v.1.15,2013-02-26 07:04:00,
2013-02-26 01:10:00,35.5,30.2,29.90,East,93,9.0,10.0,81,0.00,,,0.00,Wunderground v.1.15,2013-02-26 07:10:00,
2013-02-26 01:16:00,35.5,30.2,29.89,ENE,65,9.0,10.0,81,0.00,,,0.00,Wunderground v.1.15,2013-02-26 07:16:00,
2013-02-26 01:22:00,35.6,30.0,29.88,NE,40,10.0,12.0,80,0.00,,,0.00,Wunderground v.1.15,2013-02-26 07:22:00,
2013-02-26 01:28:00,35.6,30.0,29.87,NE,51,11.0,11.0,80,0.00,,,0.00,Wunderground v.1.15,2013-02-26 07:28:00,
2013-02-26 01:34:00,35.5,30.2,29.86,NE,51,11.0,14.0,81,0.00,,,0.00,Wunderground v.1.15,2013-02-26 07:34:00,
2013-02-26 01:40:00,35.3,30.1,29.85,NE,53,10.0,11.0,81,0.00,,,0.00,Wunderground v.1.15,2013-02-26 07:40:00,
2013-02-26 01:46:00,35.3,30.1,29.86,ENE,63,10.0,15.0,81,0.00,,,0.00,Wunderground v.1.15,2013-02-26 07:46:00,
2013-02-26 01:52:00,35.5,30.2,29.86,NE,51,11.0,15.0,81,0.00,,,0.00,Wunderground v.1.15,2013-02-26 07:52:00,
2013-02-26 01:58:00,35.4,30.1,29.86,East,91,11.0,11.0,81,0.00,,,0.00,Wunderground v.1.15,2013-02-26 07:58:00,
2013-02-26 02:04:00,35.4,30.1,29.86,East,85,10.0,11.0,81,0.00,,,0.00,Wunderground v.1.15,2013-02-26 08:04:00,
2013-02-26 02:10:00,35.4,30.1,29.86,East,94,9.0,10.0,81,0.00,,,0.00,Wunderground v.1.15,2013-02-26 08:10:00,
2013-02-26 02:16:00,35.4,30.1,29.85,ENE,60,9.0,9.0,81,0.00,,,0.00,Wunderground v.1.15,2013-02-26 08:16:00,
2013-02-26 02:21:00,35.3,30.1,29.85,East,88,9.0,10.0,81,0.00,,,0.00,Wunderground v.1.15,2013-02-26 08:21:00,
2013-02-26 02:27:00,35.4,29.8,29.84,ENE,76,10.0,10.0,80,0.00,,,0.00,Wunderground v.1.15,2013-02-26 08:27:00,
2013-02-26 02:33:00,35.3,29.7,29.83,NE,49,9.0,10.0,80,0.00,,,0.00,Wunderground v.1.15,2013-02-26 08:33:00,
2013-02-26 02:39:00,35.3,29.7,29.82,NE,51,8.0,9.0,80,0.00,,,0.00,Wunderground v.1.15,2013-02-26 08:39:00,
2013-02-26 02:45:00,35.2,29.6,29.81,NE,35,9.0,11.0,80,0.00,,,0.00,Wunderground v.1.15,2013-02-26 08:45:00,
2013-02-26 02:51:00,35.2,29.6,29.81,ENE,72,10.0,12.0,80,0.00,,,0.00,Wunderground v.1.15,2013-02-26 08:51:00,
2013-02-26 02:57:00,35.2,29.6,29.81,NE,42,9.0,10.0,80,0.00,,,0.00,Wunderground v.1.15,2013-02-26 08:57:00,
2013-02-26 03:03:00,35.3,29.7,29.80,ENE,72,11.0,16.0,80,0.00,,,0.00,Wunderground v.1.15,2013-02-26 09:03:00,
2013-02-26 03:09:00,35.4,29.8,29.79,ENE,59,12.0,12.0,80,0.00,,,0.00,Wunderground v.1.15,2013-02-26 09:09:00,
2013-02-26 03:14:00,35.3,29.7,29.79,ENE,67,11.0,14.0,80,0.00,,,0.00,Wunderground v.1.15,2013-02-26 09:14:00,
2013-02-26 03:21:00,35.4,29.8,29.78,ENE,66,11.0,12.0,80,0.00,,,0.00,Wunderground v.1.15,2013-02-26 09:21:00,
2013-02-26 03:27:00,35.4,29.8,29.78,East,83,12.0,12.0,80,0.00,,,0.00,Wunderground v.1.15,2013-02-26 09:27:00,
2013-02-26 03:32:00,35.4,29.8,29.78,ENE,69,12.0,20.0,80,0.00,,,0.00,Wunderground v.1.15,2013-02-26 09:32:00,
2013-02-26 03:38:00,35.5,29.9,29.78,ENE,71,12.0,20.0,80,0.00,,,0.00,Wunderground v.1.15,2013-02-26 09:38:00,
2013-02-26 03:44:00,35.4,29.8,29.77,ENE,58,12.0,20.0,80,0.00,,,0.00,Wunderground v.1.15,2013-02-26 09:44:00,
2013-02-26 03:51:00,35.3,29.7,29.76,ENE,63,12.0,12.0,80,0.00,,,0.00,Wunderground v.1.15,2013-02-26 09:51:00,
2013-02-26 03:56:00,35.3,29.7,29.76,ENE,72,12.0,12.0,80,0.00,,,0.00,Wunderground v.1.15,2013-02-26 09:56:00,
2013-02-26 04:02:00,35.3,29.7,29.76,NE,40,11.0,14.0,80,0.00,,,0.00,Wunderground v.1.15,2013-02-26 10:02:00,
2013-02-26 04:08:00,35.3,29.7,29.76,ENE,71,12.0,12.0,80,0.00,,,0.00,Wunderground v.1.15,2013-02-26 10:08:00,
2013-02-26 04:14:00,35.2,29.6,29.75,ENE,57,12.0,14.0,80,0.00,,,0.00,Wunderground v.1.15,2013-02-26 10:14:00,
2013-02-26 04:21:00,35.1,29.6,29.74,NE,55,12.0,21.0,80,0.00,,,0.00,Wunderground v.1.15,2013-02-26 10:21:00,
2013-02-26 04:26:00,35.2,29.6,29.73,ENE,63,13.0,14.0,80,0.00,,,0.00,Wunderground v.1.15,2013-02-26 10:26:00,
2013-02-26 04:32:00,35.2,29.6,29.73,ENE,73,14.0,22.0,80,0.00,,,0.00,Wunderground v.1.15,2013-02-26 10:32:00,
2013-02-26 04:38:00,35.2,29.6,29.73,ENE,58,14.0,19.0,80,0.00,,,0.00,Wunderground v.1.15,2013-02-26 10:38:00,
2013-02-26 04:44:00,35.2,29.6,29.73,NNE,28,15.0,20.0,80,0.00,,,0.00,Wunderground v.1.15,2013-02-26 10:44:00,
2013-02-26 04:51:00,35.2,29.6,29.73,ENE,76,15.0,18.0,80,0.00,,,0.00,Wunderground v.1.15,2013-02-26 10:51:00,
2013-02-26 04:56:00,35.1,29.6,29.72,NE,41,14.0,14.0,80,0.00,,,0.00,Wunderground v.1.15,2013-02-26 10:56:00,
2013-02-26 05:02:00,35.1,29.2,29.71,NE,44,13.0,19.0,79,0.00,,,0.00,Wunderground v.1.15,2013-02-26 11:02:00,
2013-02-26 05:08:00,35.2,29.3,29.70,NE,48,15.0,19.0,79,0.00,,,0.00,Wunderground v.1.15,2013-02-26 11:08:00,
2013-02-26 05:14:00,35.2,29.3,29.70,NE,49,15.0,19.0,79,0.00,,,0.00,Wunderground v.1.15,2013-02-26 11:14:00,
2013-02-26 05:21:00,35.2,29.3,29.70,NE,42,14.0,21.0,79,0.00,,,0.00,Wunderground v.1.15,2013-02-26 11:21:00,
2013-02-26 05:26:00,35.3,29.1,29.69,ENE,70,15.0,15.0,78,0.00,,,0.00,Wunderground v.1.15,2013-02-26 11:26:00,
2013-02-26 05:32:00,35.3,29.1,29.68,ENE,67,17.0,17.0,78,0.00,,,0.00,Wunderground v.1.15,2013-02-26 11:32:00,
2013-02-26 05:38:00,35.3,28.8,29.67,NE,56,17.0,17.0,77,0.00,,,0.00,Wunderground v.1.15,2013-02-26 11:38:00,
2013-02-26 05:44:00,35.3,29.1,29.67,ENE,70,16.0,17.0,78,0.00,,,0.00,Wunderground v.1.15,2013-02-26 11:44:00,
2013-02-26 05:50:00,35.2,29.0,29.67,NE,53,15.0,18.0,78,0.00,,,0.00,Wunderground v.1.15,2013-02-26 11:50:00,
2013-02-26 05:56:00,35.2,29.0,29.68,ENE,57,15.0,15.0,78,0.00,,,0.00,Wunderground v.1.15,2013-02-26 11:56:00,
2013-02-26 06:02:00,35.3,28.8,29.70,NE,53,14.0,16.0,77,0.00,,,0.00,Wunderground v.1.15,2013-02-26 12:02:00,
2013-02-26 06:08:00,35.4,28.9,29.71,East,80,13.0,18.0,77,0.00,,,0.00,Wunderground v.1.15,2013-02-26 12:08:00,
2013-02-26 06:14:00,35.3,28.8,29.74,East,84,13.0,18.0,77,0.00,,,0.00,Wunderground v.1.15,2013-02-26 12:14:00,
2013-02-26 06:20:00,35.3,29.1,29.73,ESE,102,11.0,15.0,78,0.00,,,0.00,Wunderground v.1.15,2013-02-26 12:20:00,
2013-02-26 06:26:00,35.2,29.0,29.73,East,79,10.0,13.0,78,0.00,,,0.00,Wunderground v.1.15,2013-02-26 12:26:00,
2013-02-26 06:32:00,35.1,28.6,29.73,East,92,10.0,13.0,77,0.00,,,0.00,Wunderground v.1.15,2013-02-26 12:32:00,
2013-02-26 06:38:00,35.2,28.7,29.72,East,92,10.0,14.0,77,0.00,,,0.00,Wunderground v.1.15,2013-02-26 12:38:00,
2013-02-26 06:44:00,35.2,28.7,29.72,ENE,78,11.0,18.0,77,0.00,,,0.00,Wunderground v.1.15,2013-02-26 12:44:00,
2013-02-26 06:50:00,35.2,28.7,29.71,NE,50,11.0,15.0,77,0.00,,,0.00,Wunderground v.1.15,2013-02-26 12:50:00,
2013-02-26 06:56:00,35.2,28.4,29.70,ENE,61,12.0,12.0,76,0.00,,,0.00,Wunderground v.1.15,2013-02-26 12:56:00,
2013-02-26 07:02:00,35.2,28.4,29.68,ENE,64,13.0,18.0,76,0.00,,,0.00,Wunderground v.1.15,2013-02-26 13:02:00,
2013-02-26 07:08:00,35.2,28.4,29.68,ENE,76,13.0,16.0,76,0.00,,,0.00,Wunderground v.1.15,2013-02-26 13:08:00,
2013-02-26 07:14:00,35.2,28.4,29.67,ENE,69,13.0,16.0,76,0.00,,,0.00,Wunderground v.1.15,2013-02-26 13:14:00,
2013-02-26 07:19:00,35.2,28.4,29.68,NE,56,14.0,14.0,76,0.00,,,0.00,Wunderground v.1.15,2013-02-26 13:19:00,
2013-02-26 07:25:00,35.3,28.2,29.68,NE,49,14.0,19.0,75,0.00,,,0.00,Wunderground v.1.15,2013-02-26 13:25:00,
2013-02-26 07:31:00,35.4,28.3,29.68,ENE,73,14.0,21.0,75,0.00,,,0.00,Wunderground v.1.15,2013-02-26 13:31:00,
2013-02-26 07:37:00,35.4,28.3,29.68,ENE,57,14.0,14.0,75,0.00,,,0.00,Wunderground v.1.15,2013-02-26 13:37:00,
2013-02-26 07:43:00,35.4,28.3,29.67,ENE,66,12.0,19.0,75,0.00,,,0.00,Wunderground v.1.15,2013-02-26 13:43:00,
2013-02-26 07:49:00,35.5,28.4,29.66,ENE,75,13.0,13.0,75,0.00,,,0.00,Wunderground v.1.15,2013-02-26 13:49:00,
2013-02-26 07:55:00,35.5,28.4,29.66,NE,45,14.0,14.0,75,0.00,,,0.00,Wunderground v.1.15,2013-02-26 13:55:00,
2013-02-26 08:01:00,35.5,28.4,29.65,ESE,105,13.0,14.0,75,0.00,,,0.00,Wunderground v.1.15,2013-02-26 14:01:00,
2013-02-26 08:07:00,35.5,28.4,29.65,East,85,12.0,12.0,75,0.00,,,0.00,Wunderground v.1.15,2013-02-26 14:07:00,
2013-02-26 08:12:00,35.5,28.4,29.65,East,85,12.0,13.0,75,0.00,,,0.00,Wunderground v.1.15,2013-02-26 14:12:00,
2013-02-26 08:19:00,35.6,28.5,29.65,ENE,68,13.0,13.0,75,0.00,,,0.00,Wunderground v.1.15,2013-02-26 14:19:00,
2013-02-26 08:24:00,35.6,28.5,29.64,ENE,63,14.0,20.0,75,0.00,,,0.00,Wunderground v.1.15,2013-02-26 14:24:00,
2013-02-26 08:31:00,35.6,28.5,29.63,East,82,12.0,13.0,75,0.00,,,0.00,Wunderground v.1.15,2013-02-26 14:31:00,
2013-02-26 08:37:00,35.6,28.5,29.62,ENE,59,12.0,14.0,75,0.00,,,0.00,Wunderground v.1.15,2013-02-26 14:37:00,
2013-02-26 08:42:00,35.5,28.7,29.61,NE,51,13.0,20.0,76,0.00,,,0.00,Wunderground v.1.15,2013-02-26 14:42:00,
2013-02-26 08:49:00,35.4,28.9,29.61,NE,49,14.0,14.0,77,0.00,,,0.00,Wunderground v.1.15,2013-02-26 14:49:00,
2013-02-26 08:54:00,35.5,28.7,29.60,NE,43,14.0,16.0,76,0.00,,,0.00,Wunderground v.1.15,2013-02-26 14:54:00,
2013-02-26 09:01:00,35.5,28.7,29.60,ENE,62,15.0,21.0,76,0.00,,,0.00,Wunderground v.1.15,2013-02-26 15:01:00,
2013-02-26 09:06:00,35.6,29.1,29.60,NE,40,15.0,15.0,77,0.00,,,0.00,Wunderground v.1.15,2013-02-26 15:06:00,
2013-02-26 09:12:00,35.5,29.0,29.59,NE,48,16.0,19.0,77,0.00,,,0.00,Wunderground v.1.15,2013-02-26 15:12:00,
2013-02-26 09:19:00,35.3,29.4,29.58,ENE,60,16.0,17.0,79,0.00,,,0.00,Wunderground v.1.15,2013-02-26 15:19:00,
2013-02-26 09:24:00,35.2,29.3,29.58,ENE,62,14.0,22.0,79,0.00,,,0.00,Wunderground v.1.15,2013-02-26 15:24:00,
2013-02-26 09:31:00,35.2,29.3,29.58,NE,43,14.0,18.0,79,0.00,,,0.00,Wunderground v.1.15,2013-02-26 15:31:00,
2013-02-26 09:36:00,35.3,29.4,29.58,NE,42,14.0,14.0,79,0.00,,,0.00,Wunderground v.1.15,2013-02-26 15:36:00,
2013-02-26 09:42:00,35.4,29.5,29.59,ENE,69,12.0,14.0,79,0.00,,,0.00,Wunderground v.1.15,2013-02-26 15:42:00,
2013-02-26 09:48:00,35.6,29.4,29.61,ESE,106,11.0,13.0,78,0.00,,,0.00,Wunderground v.1.15,2013-02-26 15:48:00,
2013-02-26 09:54:00,35.7,29.5,29.62,ESE,103,10.0,13.0,78,0.00,,,0.00,Wunderground v.1.15,2013-02-26 15:54:00,
2013-02-26 10:01:00,35.6,29.4,29.62,East,86,10.0,13.0,78,0.00,,,0.00,Wunderground v.1.15,2013-02-26 16:01:00,
2013-02-26 10:06:00,35.2,30.0,29.62,East,82,10.0,10.0,81,0.00,,,0.00,Wunderground v.1.15,2013-02-26 16:06:00,
2013-02-26 10:12:00,34.4,30.1,29.62,ENE,63,10.0,11.0,84,0.00,,,0.00,Wunderground v.1.15,2013-02-26 16:12:00,
2013-02-26 10:18:00,33.9,30.4,29.61,NE,49,9.0,10.0,87,0.00,,,0.00,Wunderground v.1.15,2013-02-26 16:18:00,
2013-02-26 10:24:00,33.5,30.6,29.61,ENE,67,9.0,11.0,89,0.00,,,0.00,Wunderground v.1.15,2013-02-26 16:24:00,
2013-02-26 10:30:00,33.1,30.5,29.59,NE,34,10.0,15.0,90,0.00,,,0.00,Wunderground v.1.15,2013-02-26 16:30:00,
2013-02-26 10:36:00,32.9,30.6,29.59,NE,42,12.0,12.0,91,0.00,,,0.00,Wunderground v.1.15,2013-02-26 16:36:00,
2013-02-26 10:42:00,32.8,30.7,29.59,ENE,67,11.0,14.0,92,0.00,,,0.00,Wunderground v.1.15,2013-02-26 16:42:00,
2013-02-26 10:48:00,32.8,31.0,29.59,NE,52,11.0,12.0,93,0.00,,,0.00,Wunderground v.1.15,2013-02-26 16:48:00,
2013-02-26 10:54:00,32.7,30.9,29.59,NE,50,12.0,15.0,93,0.00,,,0.00,Wunderground v.1.15,2013-02-26 16:54:00,
2013-02-26 11:00:00,32.7,30.9,29.58,NNE,31,12.0,12.0,93,0.00,,,0.00,Wunderground v.1.15,2013-02-26 17:00:00,
2013-02-26 11:06:00,32.7,31.2,29.58,NE,44,11.0,11.0,94,0.00,,,0.00,Wunderground v.1.15,2013-02-26 17:06:00,
2013-02-26 11:12:00,32.7,31.2,29.58,ENE,69,12.0,14.0,94,0.00,,,0.00,Wunderground v.1.15,2013-02-26 17:12:00,
2013-02-26 11:18:00,32.6,31.1,29.57,NE,42,12.0,12.0,94,0.00,,,0.00,Wunderground v.1.15,2013-02-26 17:18:00,
2013-02-26 11:24:00,32.7,31.2,29.57,NE,41,13.0,15.0,94,0.00,,,0.00,Wunderground v.1.15,2013-02-26 17:24:00,
2013-02-26 11:30:00,32.7,31.2,29.56,NE,40,13.0,14.0,94,0.00,,,0.00,Wunderground v.1.15,2013-02-26 17:30:00,
2013-02-26 11:36:00,32.7,31.2,29.56,ENE,59,13.0,15.0,94,0.00,,,0.00,Wunderground v.1.15,2013-02-26 17:36:00,
2013-02-26 11:42:00,32.7,31.2,29.56,NE,46,14.0,15.0,94,0.00,,,0.00,Wunderground v.1.15,2013-02-26 17:42:00,
2013-02-26 11:48:00,32.7,31.2,29.55,NE,35,12.0,15.0,94,0.00,,,0.00,Wunderground v.1.15,2013-02-26 17:48:00,
2013-02-26 11:54:00,32.7,31.2,29.55,NE,39,13.0,15.0,94,0.00,,,0.00,Wunderground v.1.15,2013-02-26 17:54:00,
2013-02-26 12:00:00,32.8,31.5,29.55,NE,40,12.0,18.0,95,0.00,,,0.00,Wunderground v.1.15,2013-02-26 18:00:00,
2013-02-26 12:06:00,32.8,31.5,29.55,NE,49,12.0,12.0,95,0.00,,,0.00,Wunderground v.1.15,2013-02-26 18:06:00,
2013-02-26 12:12:00,32.8,31.5,29.54,NE,35,11.0,13.0,95,0.00,,,0.00,Wunderground v.1.15,2013-02-26 18:12:00,
2013-02-26 12:17:00,32.7,31.4,29.54,ENE,66,11.0,12.0,95,0.00,,,0.00,Wunderground v.1.15,2013-02-26 18:17:00,
2013-02-26 12:23:00,32.7,31.4,29.54,NE,49,10.0,15.0,95,0.00,,,0.00,Wunderground v.1.15,2013-02-26 18:23:00,
2013-02-26 12:29:00,32.7,31.4,29.53,NNE,28,11.0,14.0,95,0.00,,,0.00,Wunderground v.1.15,2013-02-26 18:29:00,
2013-02-26 12:35:00,32.6,31.3,29.53,NE,56,11.0,14.0,95,0.00,,,0.00,Wunderground v.1.15,2013-02-26 18:35:00,
2013-02-26 12:41:00,32.6,31.3,29.53,NE,34,10.0,12.0,95,0.00,,,0.00,Wunderground v.1.15,2013-02-26 18:41:00,
2013-02-26 12:47:00,32.6,31.3,29.53,NE,46,11.0,11.0,95,0.00,,,0.00,Wunderground v.1.15,2013-02-26 18:47:00,
2013-02-26 12:53:00,32.6,31.3,29.53,NE,48,10.0,11.0,95,0.00,,,0.00,Wunderground v.1.15,2013-02-26 18:53:00,
2013-02-26 12:59:00,32.6,31.3,29.53,NE,40,10.0,12.0,95,0.00,,,0.00,Wunderground v.1.15,2013-02-26 18:59:00,
2013-02-26 13:05:00,32.6,31.3,29.52,ENE,65,10.0,18.0,95,0.00,,,0.00,Wunderground v.1.15,2013-02-26 19:05:00,
2013-02-26 13:11:00,32.6,31.3,29.52,NE,39,10.0,11.0,95,0.00,,,0.00,Wunderground v.1.15,2013-02-26 19:11:00,
2013-02-26 13:16:00,32.7,31.4,29.52,NNE,27,10.0,12.0,95,0.00,,,0.00,Wunderground v.1.15,2013-02-26 19:16:00,
2013-02-26 13:23:00,32.7,31.4,29.52,ENE,63,9.0,12.0,95,0.00,,,0.00,Wunderground v.1.15,2013-02-26 19:23:00,
2013-02-26 13:28:00,32.7,31.4,29.53,NE,51,8.0,9.0,95,0.00,,,0.00,Wunderground v.1.15,2013-02-26 19:28:00,
2013-02-26 13:35:00,32.7,31.4,29.52,NNE,30,9.0,11.0,95,0.00,,,0.00,Wunderground v.1.15,2013-02-26 19:35:00,
2013-02-26 13:41:00,32.8,31.5,29.52,NE,39,9.0,9.0,95,0.00,,,0.00,Wunderground v.1.15,2013-02-26 19:41:00,
2013-02-26 13:46:00,32.8,31.5,29.52,NE,47,8.0,10.0,95,0.00,,,0.00,Wunderground v.1.15,2013-02-26 19:46:00,
2013-02-26 13:52:00,32.8,31.5,29.53,ENE,66,9.0,12.0,95,0.00,,,0.00,Wunderground v.1.15,2013-02-26 19:52:00,
2013-02-26 13:58:00,32.8,31.5,29.53,NE,53,10.0,10.0,95,0.00,,,0.01,Wunderground v.1.15,2013-02-26 19:58:00,
2013-02-26 14:04:00,32.8,31.5,29.53,NE,44,9.0,10.0,95,0.00,,,0.01,Wunderground v.1.15,2013-02-26 20:04:00,
2013-02-26 14:11:00,32.7,31.4,29.52,NNE,31,9.0,14.0,95,0.00,,,0.01,Wunderground v.1.15,2013-02-26 20:11:00,
2013-02-26 14:16:00,32.7,31.4,29.52,NE,40,10.0,10.0,95,0.00,,,0.01,Wunderground v.1.15,2013-02-26 20:16:00,
2013-02-26 14:22:00,32.8,31.5,29.52,NE,35,10.0,11.0,95,0.00,,,0.01,Wunderground v.1.15,2013-02-26 20:22:00,
2013-02-26 14:28:00,32.8,31.5,29.52,NNE,28,10.0,12.0,95,0.00,,,0.01,Wunderground v.1.15,2013-02-26 20:28:00,
2013-02-26 14:34:00,32.8,31.5,29.52,ENE,57,9.0,15.0,95,0.00,,,0.02,Wunderground v.1.15,2013-02-26 20:34:00,
2013-02-26 14:41:00,33.0,31.7,29.52,NE,38,11.0,15.0,95,0.00,,,0.02,Wunderground v.1.15,2013-02-26 20:41:00,
2013-02-26 14:46:00,33.1,31.8,29.52,NE,52,12.0,20.0,95,0.00,,,0.02,Wunderground v.1.15,2013-02-26 20:46:00,
2013-02-26 14:52:00,33.1,31.8,29.52,NE,39,14.0,20.0,95,0.00,,,0.02,Wunderground v.1.15,2013-02-26 20:52:00,
2013-02-26 14:58:00,33.1,31.8,29.52,NE,43,14.0,16.0,95,0.00,,,0.03,Wunderground v.1.15,2013-02-26 20:58:00,
2013-02-26 15:04:00,33.1,31.8,29.52,NNE,27,14.0,16.0,95,0.00,,,0.03,Wunderground v.1.15,2013-02-26 21:04:00,
2013-02-26 15:11:00,33.1,31.8,29.52,NNW,342,14.0,14.0,95,0.00,,,0.03,Wunderground v.1.15,2013-02-26 21:11:00,
2013-02-26 15:16:00,33.1,31.8,29.52,NNE,28,13.0,13.0,95,0.00,,,0.03,Wunderground v.1.15,2013-02-26 21:16:00,
2013-02-26 15:22:00,33.0,31.7,29.52,NE,51,14.0,18.0,95,0.00,,,0.03,Wunderground v.1.15,2013-02-26 21:22:00,
2013-02-26 15:28:00,33.0,31.7,29.52,NE,49,14.0,16.0,95,0.00,,,0.03,Wunderground v.1.15,2013-02-26 21:28:00,
2013-02-26 15:34:00,33.1,31.8,29.53,NNE,32,13.0,19.0,95,0.00,,,0.03,Wunderground v.1.15,2013-02-26 21:34:00,
2013-02-26 15:40:00,33.1,31.8,29.53,NE,49,13.0,14.0,95,0.00,,,0.03,Wunderground v.1.15,2013-02-26 21:40:00,
2013-02-26 15:46:00,33.1,31.8,29.53,NNE,33,12.0,13.0,95,0.00,,,0.03,Wunderground v.1.15,2013-02-26 21:46:00,
2013-02-26 15:52:00,33.1,31.8,29.53,NE,44,14.0,15.0,95,0.00,,,0.04,Wunderground v.1.15,2013-02-26 21:52:00,
2013-02-26 15:58:00,33.2,31.9,29.53,East,86,13.0,13.0,95,0.00,,,0.04,Wunderground v.1.15,2013-02-26 21:58:00,
2013-02-26 16:04:00,33.2,31.9,29.53,NE,52,12.0,16.0,95,0.00,,,0.04,Wunderground v.1.15,2013-02-26 22:04:00,
2013-02-26 16:10:00,33.2,31.9,29.53,NE,44,13.0,14.0,95,0.00,,,0.04,Wunderground v.1.15,2013-02-26 22:10:00,
2013-02-26 16:16:00,33.2,31.9,29.53,NNE,19,13.0,13.0,95,0.00,,,0.04,Wunderground v.1.15,2013-02-26 22:16:00,
2013-02-26 16:22:00,33.2,31.9,29.53,NE,44,13.0,16.0,95,0.00,,,0.04,Wunderground v.1.15,2013-02-26 22:22:00,
2013-02-26 16:28:00,33.2,31.9,29.53,NE,38,13.0,14.0,95,0.00,,,0.04,Wunderground v.1.15,2013-02-26 22:28:00,
2013-02-26 16:34:00,33.1,31.8,29.53,NNE,30,13.0,16.0,95,0.00,,,0.04,Wunderground v.1.15,2013-02-26 22:34:00,
2013-02-26 16:40:00,33.1,31.8,29.53,NE,44,14.0,18.0,95,0.00,,,0.04,Wunderground v.1.15,2013-02-26 22:40:00,
2013-02-26 16:46:00,33.0,31.7,29.53,NE,44,13.0,13.0,95,0.00,,,0.04,Wunderground v.1.15,2013-02-26 22:46:00,
2013-02-26 16:52:00,33.0,31.7,29.54,NNE,24,12.0,16.0,95,0.00,,,0.04,Wunderground v.1.15,2013-02-26 22:52:00,
2013-02-26 16:58:00,33.1,31.8,29.53,NNE,21,13.0,13.0,95,0.00,,,0.04,Wunderground v.1.15,2013-02-26 22:58:00,
2013-02-26 17:04:00,33.0,31.7,29.54,NE,39,12.0,19.0,95,0.00,,,0.04,Wunderground v.1.15,2013-02-26 23:04:00,
2013-02-26 17:10:00,33.0,31.7,29.54,NNE,31,12.0,13.0,95,0.00,,,0.04,Wunderground v.1.15,2013-02-26 23:10:00,
2013-02-26 17:16:00,33.0,31.7,29.55,NNE,22,11.0,11.0,95,0.00,,,0.04,Wunderground v.1.15,2013-02-26 23:16:00,
2013-02-26 17:21:00,33.0,31.7,29.55,NNE,21,11.0,11.0,95,0.00,,,0.04,Wunderground v.1.15,2013-02-26 23:21:00,
2013-02-26 17:27:00,33.0,31.7,29.55,NNE,28,11.0,11.0,95,0.00,,,0.04,Wunderground v.1.15,2013-02-26 23:27:00,
2013-02-26 17:33:00,33.0,31.7,29.55,NE,36,12.0,15.0,95,0.00,,,0.04,Wunderground v.1.15,2013-02-26 23:33:00,
2013-02-26 17:39:00,33.0,31.7,29.55,NNE,22,12.0,12.0,95,0.00,,,0.04,Wunderground v.1.15,2013-02-26 23:39:00,
2013-02-26 17:45:00,33.1,31.8,29.56,ENE,58,11.0,12.0,95,0.00,,,0.04,Wunderground v.1.15,2013-02-26 23:45:00,
2013-02-26 17:51:00,33.1,31.8,29.56,NNE,17,10.0,10.0,95,0.00,,,0.04,Wunderground v.1.15,2013-02-26 23:51:00,
2013-02-26 17:57:00,33.1,32.1,29.56,NE,35,10.0,11.0,96,0.00,,,0.04,Wunderground v.1.15,2013-02-26 23:57:00,
2013-02-26 18:02:00,33.1,32.1,29.56,NE,49,10.0,12.0,96,0.00,,,0.04,Wunderground v.1.15,2013-02-27 00:02:00,
2013-02-26 18:09:00,33.1,32.1,29.56,NW,317,10.0,11.0,96,0.00,,,0.04,Wunderground v.1.15,2013-02-27 00:09:00,
2013-02-26 18:14:00,33.1,32.1,29.56,NE,42,10.0,11.0,96,0.00,,,0.04,Wunderground v.1.15,2013-02-27 00:14:00,
2013-02-26 18:21:00,33.2,32.2,29.56,NNE,16,10.0,11.0,96,0.00,,,0.04,Wunderground v.1.15,2013-02-27 00:21:00,
2013-02-26 18:27:00,33.2,32.2,29.57,NNE,31,11.0,11.0,96,0.00,,,0.05,Wunderground v.1.15,2013-02-27 00:27:00,
2013-02-26 18:32:00,33.2,32.2,29.57,NNE,27,10.0,11.0,96,0.00,,,0.05,Wunderground v.1.15,2013-02-27 00:32:00,
2013-02-26 18:38:00,33.2,32.2,29.57,NNE,24,10.0,10.0,96,0.00,,,0.05,Wunderground v.1.15,2013-02-27 00:38:00,
2013-02-26 18:44:00,33.2,32.2,29.57,NNE,31,10.0,13.0,96,0.00,,,0.05,Wunderground v.1.15,2013-02-27 00:44:00,
2013-02-26 18:51:00,33.2,32.2,29.57,North,11,10.0,11.0,96,0.00,,,0.05,Wunderground v.1.15,2013-02-27 00:51:00,
2013-02-26 18:56:00,33.2,32.2,29.57,NNE,26,11.0,11.0,96,0.00,,,0.05,Wunderground v.1.15,2013-02-27 00:56:00,
2013-02-26 19:02:00,33.2,32.2,29.57,NNE,26,10.0,11.0,96,0.00,,,0.05,Wunderground v.1.15,2013-02-27 01:02:00,
2013-02-26 19:08:00,33.2,32.2,29.57,NNW,346,9.0,9.0,96,0.00,,,0.05,Wunderground v.1.15,2013-02-27 01:08:00,
2013-02-26 19:14:00,33.3,32.3,29.57,NNE,22,9.0,12.0,96,0.00,,,0.05,Wunderground v.1.15,2013-02-27 01:14:00,
2013-02-26 19:21:00,33.3,32.3,29.56,North,360,10.0,10.0,96,0.00,,,0.05,Wunderground v.1.15,2013-02-27 01:21:00,
2013-02-26 19:26:00,33.3,32.3,29.56,NNE,28,10.0,10.0,96,0.00,,,0.05,Wunderground v.1.15,2013-02-27 01:26:00,
2013-02-26 19:32:00,33.3,32.0,29.56,NE,34,9.0,10.0,95,0.00,,,0.05,Wunderground v.1.15,2013-02-27 01:32:00,
2013-02-26 19:38:00,33.4,32.1,29.56,NNE,25,9.0,9.0,95,0.00,,,0.05,Wunderground v.1.15,2013-02-27 01:38:00,
2013-02-26 19:44:00,33.4,32.1,29.56,NE,35,9.0,11.0,95,0.00,,,0.05,Wunderground v.1.15,2013-02-27 01:44:00,
2013-02-26 19:51:00,33.4,32.4,29.56,NE,37,10.0,12.0,96,0.00,,,0.05,Wunderground v.1.15,2013-02-27 01:51:00,
2013-02-26 19:56:00,33.4,32.1,29.56,NE,54,10.0,11.0,95,0.00,,,0.05,Wunderground v.1.15,2013-02-27 01:56:00,
2013-02-26 20:02:00,33.4,32.1,29.56,NE,34,10.0,11.0,95,0.00,,,0.05,Wunderground v.1.15,2013-02-27 02:02:00,
2013-02-26 20:08:00,33.4,32.1,29.56,NNW,337,10.0,13.0,95,0.00,,,0.05,Wunderground v.1.15,2013-02-27 02:08:00,
2013-02-26 20:14:00,33.5,32.2,29.56,NNE,24,10.0,13.0,95,0.00,,,0.05,Wunderground v.1.15,2013-02-27 02:14:00,
2013-02-26 20:21:00,33.5,32.2,29.56,NE,37,10.0,11.0,95,0.00,,,0.05,Wunderground v.1.15,2013-02-27 02:21:00,
2013-02-26 20:26:00,33.5,32.2,29.56,NNE,16,10.0,10.0,95,0.00,,,0.05,Wunderground v.1.15,2013-02-27 02:26:00,
2013-02-26 20:32:00,33.5,32.2,29.56,North,360,10.0,10.0,95,0.00,,,0.05,Wunderground v.1.15,2013-02-27 02:32:00,
2013-02-26 20:38:00,33.5,32.2,29.56,NNE,15,10.0,13.0,95,0.00,,,0.05,Wunderground v.1.15,2013-02-27 02:38:00,
2013-02-26 20:44:00,33.5,32.2,29.56,NE,34,9.0,13.0,95,0.00,,,0.05,Wunderground v.1.15,2013-02-27 02:44:00,
2013-02-26 20:50:00,33.6,32.3,29.56,NNE,24,9.0,10.0,95,0.00,,,0.05,Wunderground v.1.15,2013-02-27 02:50:00,
2013-02-26 20:56:00,33.6,32.3,29.57,North,11,9.0,9.0,95,0.00,,,0.05,Wunderground v.1.15,2013-02-27 02:56:00,
2013-02-26 21:02:00,33.6,32.3,29.57,NNE,22,9.0,12.0,95,0.00,,,0.05,Wunderground v.1.15,2013-02-27 03:02:00,
2013-02-26 21:08:00,33.6,32.3,29.57,NE,37,9.0,9.0,95,0.00,,,0.05,Wunderground v.1.15,2013-02-27 03:08:00,
2013-02-26 21:14:00,33.6,32.3,29.57,NNE,19,8.0,9.0,95,0.00,,,0.05,Wunderground v.1.15,2013-02-27 03:14:00,
2013-02-26 21:20:00,33.6,32.3,29.57,NNE,31,8.0,9.0,95,0.00,,,0.05,Wunderground v.1.15,2013-02-27 03:20:00,
2013-02-26 21:26:00,33.6,32.3,29.57,NNE,22,8.0,8.0,95,0.00,,,0.05,Wunderground v.1.15,2013-02-27 03:26:00,
2013-02-26 21:32:00,33.7,32.4,29.57,NNE,19,8.0,9.0,95,0.00,,,0.05,Wunderground v.1.15,2013-02-27 03:32:00,
2013-02-26 21:38:00,33.7,32.4,29.57,NNE,23,7.0,7.0,95,0.00,,,0.05,Wunderground v.1.15,2013-02-27 03:38:00,
2013-02-26 21:44:00,33.7,32.4,29.57,NE,34,8.0,9.0,95,0.00,,,0.05,Wunderground v.1.15,2013-02-27 03:44:00,
2013-02-26 21:50:00,33.7,32.4,29.57,NE,35,8.0,13.0,95,0.00,,,0.05,Wunderground v.1.15,2013-02-27 03:50:00,
2013-02-26 21:56:00,33.6,32.3,29.57,NNE,30,7.0,8.0,95,0.00,,,0.05,Wunderground v.1.15,2013-02-27 03:56:00,
2013-02-26 22:02:00,33.6,32.3,29.57,NNE,28,7.0,8.0,95,0.00,,,0.05,Wunderground v.1.15,2013-02-27 04:02:00,
2013-02-26 22:08:00,33.6,32.3,29.57,NNE,13,7.0,8.0,95,0.00,,,0.05,Wunderground v.1.15,2013-02-27 04:08:00,
2013-02-26 22:14:00,33.6,32.3,29.57,NNE,24,7.0,8.0,95,0.00,,,0.05,Wunderground v.1.15,2013-02-27 04:14:00,
2013-02-26 22:19:00,33.6,32.3,29.57,NNW,344,7.0,7.0,95,0.00,,,0.05,Wunderground v.1.15,2013-02-27 04:19:00,
2013-02-26 22:25:00,33.6,32.3,29.57,NNE,32,7.0,9.0,95,0.00,,,0.05,Wunderground v.1.15,2013-02-27 04:25:00,
2013-02-26 22:31:00,33.6,32.3,29.57,NNE,18,7.0,9.0,95,0.00,,,0.05,Wunderground v.1.15,2013-02-27 04:31:00,
2013-02-26 22:37:00,33.6,32.3,29.57,NNE,13,6.0,6.0,95,0.00,,,0.05,Wunderground v.1.15,2013-02-27 04:37:00,
2013-02-26 22:43:00,33.5,32.2,29.57,North,5,6.0,11.0,95,0.00,,,0.05,Wunderground v.1.15,2013-02-27 04:43:00,
2013-02-26 22:49:00,33.5,32.2,29.57,NNE,15,7.0,9.0,95,0.00,,,0.05,Wunderground v.1.15,2013-02-27 04:49:00,
2013-02-26 22:54:00,33.6,32.3,29.57,NNE,15,7.0,9.0,95,0.00,,,0.05,Wunderground v.1.15,2013-02-27 04:54:00,
2013-02-26 23:01:00,33.6,32.3,29.57,NNE,17,6.0,8.0,95,0.00,,,0.05,Wunderground v.1.15,2013-02-27 05:01:00,
2013-02-26 23:04:00,33.5,32.2,29.57,NNE,20,6.0,8.0,95,0.00,,,0.05,Wunderground v.1.15,2013-02-27 05:04:00,
2013-02-26 23:11:00,33.5,32.2,29.57,NNE,15,6.0,7.0,95,0.00,,,0.05,Wunderground v.1.15,2013-02-27 05:11:00,
2013-02-26 23:14:00,33.6,32.3,29.57,NNE,24,7.0,9.0,95,0.00,,,0.05,Wunderground v.1.15,2013-02-27 05:14:00,
2013-02-26 23:21:00,33.6,32.3,29.57,NNE,16,7.0,7.0,95,0.00,,,0.05,Wunderground v.1.15,2013-02-27 05:21:00,
2013-02-26 23:27:00,33.6,32.3,29.57,North,355,7.0,7.0,95,0.00,,,0.05,Wunderground v.1.15,2013-02-27 05:27:00,
2013-02-26 23:32:00,33.7,32.4,29.57,North,5,7.0,8.0,95,0.00,,,0.05,Wunderground v.1.15,2013-02-27 05:32:00,
2013-02-26 23:39:00,33.7,32.4,29.57,NNE,12,7.0,7.0,95,0.00,,,0.05,Wunderground v.1.15,2013-02-27 05:39:00,
2013-02-26 23:44:00,33.7,32.4,29.57,North,360,6.0,8.0,95,0.00,,,0.05,Wunderground v.1.15,2013-02-27 05:44:00,
2013-02-26 23:51:00,33.7,32.4,29.57,NNE,15,5.0,6.0,95,0.00,,,0.05,Wunderground v.1.15,2013-02-27 05:51:00,
2013-02-26 23:57:00,33.7,32.4,29.57,North,351,5.0,5.0,95,0.00,,,0.05,Wunderground v.1.15,2013-02-27 05:57:00,